TimeCDT,TemperatureF,Dew PointF,Humidity,Sea Level PressureIn,VisibilityMPH,Wind Direction,Wind SpeedMPH,Gust SpeedMPH,PrecipitationIn,Events,Conditions,WindDirDegrees,DateUTC
12:53 AM,75.0,68.0,79,29.86,10.0,Calm,Calm,-,N/A,,Clear,0,2012-05-05 05:53:00
1:53 AM,73.0,66.9,81,29.86,10.0,Calm,Calm,-,N/A,,Clear,0,2012-05-05 06:53:00
2:53 AM,70.0,66.9,90,29.86,9.0,NNE,3.5,-,N/A,,Clear,30,2012-05-05 07:53:00
3:53 AM,69.1,66.0,90,29.87,8.0,ENE,3.5,-,N/A,,Clear,60,2012-05-05 08:53:00
4:53 AM,66.9,64.9,93,29.88,7.0,Calm,Calm,-,N/A,,Clear,0,2012-05-05 09:53:00
5:53 AM,66.9,64.9,93,29.89,1.2,Calm,Calm,-,N/A,,Clear,0,2012-05-05 10:53:00
6:03 AM,66.2,64.4,94,29.91,3.0,Calm,Calm,-,N/A,,Clear,0,2012-05-05 11:03:00
6:18 AM,64.4,62.6,94,29.92,2.0,NNE,3.5,-,N/A,,Clear,20,2012-05-05 11:18:00
6:33 AM,66.2,64.4,94,29.92,3.0,Calm,Calm,-,N/A,,Clear,0,2012-05-05 11:33:00
6:53 AM,69.1,66.0,90,29.91,4.0,Calm,Calm,-,N/A,,Clear,0,2012-05-05 11:53:00
7:53 AM,73.9,69.1,85,29.91,7.0,Calm,Calm,-,N/A,,Clear,0,2012-05-05 12:53:00
8:53 AM,79.0,70.0,74,29.92,9.0,South,3.5,-,N/A,,Clear,190,2012-05-05 13:53:00
9:53 AM,84.0,70.0,63,29.92,10.0,SSW,8.1,-,N/A,,Clear,210,2012-05-05 14:53:00
10:53 AM,86.0,69.1,57,29.92,10.0,South,8.1,-,N/A,,Clear,180,2012-05-05 15:53:00
11:53 AM,88.0,69.1,53,29.89,10.0,SSW,11.5,19.6,N/A,,Clear,200,2012-05-05 16:53:00
12:53 PM,90.0,70.0,52,29.88,10.0,SSW,11.5,-,N/A,,Clear,200,2012-05-05 17:53:00
1:53 PM,90.0,68.0,48,29.86,10.0,SSW,9.2,-,N/A,,Clear,210,2012-05-05 18:53:00
2:53 PM,91.0,69.1,48,29.85,10.0,SW,12.7,17.3,N/A,,Clear,220,2012-05-05 19:53:00
3:53 PM,91.9,68.0,45,29.84,10.0,SSW,10.4,-,N/A,,Clear,210,2012-05-05 20:53:00
4:53 PM,91.9,66.0,42,29.82,10.0,SSW,8.1,-,N/A,,Clear,210,2012-05-05 21:53:00
5:53 PM,90.0,64.9,43,29.83,10.0,SW,11.5,-,N/A,,Clear,220,2012-05-05 22:53:00
6:53 PM,86.0,66.9,53,29.84,10.0,SW,11.5,-,N/A,,Clear,230,2012-05-05 23:53:00
7:53 PM,82.9,66.9,58,29.85,10.0,SSW,4.6,-,N/A,,Clear,200,2012-05-06 00:53:00
8:53 PM,80.1,66.9,64,29.86,10.0,South,3.5,-,N/A,,Clear,180,2012-05-06 01:53:00
9:53 PM,75.9,66.0,71,29.88,10.0,Calm,Calm,-,N/A,,Clear,0,2012-05-06 02:53:00
10:53 PM,73.0,66.0,79,29.88,7.0,Calm,Calm,-,N/A,,Clear,0,2012-05-06 03:53:00
11:53 PM,72.0,66.9,84,29.88,9.0,Calm,Calm,-,N/A,,Clear,0,2012-05-06 04:53:00